Location: Newark
(45.2500°N, 7.5833°E)
Time: 18:19:22
(UTC+00:00)

Vanguard 3 - Pass Details

Date: 31 January 2020
Orbit: 508 x 3263 km, 33.3° (Epoch: 17 February)

Event Time Altitude Azimuth Distance (km) Brightness Sun altitude
Rises 14:58:34 0° 229° (SW) 6,164 13.7 13.3°
Reaches altitude 10° 15:02:27 10° 224° (SW) 5,448 14.5 12.7°
Maximum altitude 15:18:49 47° 158° (SSE) 3,902 10.9 10.5°
Drops below altitude 10° 15:36:40 10° 93° (E) 5,915 11.1 8.0°
Sets 15:41:04 0° 88° (E) 6,711 11.3 7.4°
